SCP
0 0 0 0 0 0 0 0 0 0 0 0 0 0 0 0 0 0 0 0 0 0 0 0 0 0 0 0 0 0 0 0 0 0 0 0 0 0 0 0 0 0 0 0 0 0 0 0 0 0 0 0 0 0
0 0 0 0 0 0 0 0 0 0 0 0 0 0 0 0 0 0 0 0 0 0 0 0 0 0 0 0 0 0 0 0 0 0 0 0 0 0 0 0 0 0 0 0 0 0 0 0 0 0 0 0 0 0
0 0 0 0 0 0 0 0 0 0 0 0 0 0 0 0 0 0 0 0 0 0 -0 0 0 0 0 0 0 0 0 0 0 0 0 0 0 0 0 0 0 0 0 0 0 0 0 0 0 0 0 0 0 0
0 0 0 0 0 0 0 0 0 0 0 0 0 0 0 0 0 0 0 0 0 0 0 0 0 0 0 0 0 0 0 0 0 0 0 0 0 0 0 0 0 0 0 0 0 0 0 0 0 0 0 0 0 0
0 0 0 -0 0 0 0 0 0 0 0 0 0 0 0 0 0 0 0 0 0 0 0 0 0 0 0 -0 0 0 0 0 0 0 0 0 0 0 0 0 0 0 0 0 0 0 0 0 0 0 0 0 0 0
0 0 -0 0 0 0 -0 -0 -0 0 0 0 0 0 0 0 0 0 0 0 0 0 0 0 0 0 0 0 0 0 0 0 0 0 0 0 0 0 0 0 0 0 0 0 0 0 0 0 0 0 0 0 0 0
-0 0 -0 -0 0 0 0 0 0 0 0 0 0 0 0 0 0 0 0 0 0 0 0 0 0 0 0 0 0 0 0 0 0 0 0 0 0 0 0 0 0 0 0 0 0 0 0 0 0 0 0 0 0 0
0 0 -0 0 0 0 0 0 0 -0 -0 -0 0 0 0 -0 0 0 0 0 0 0 0 0 0 0 0 0 0 0 0 0 0 0 0 0 0 0 0 0 0 0 0 0 0 0 0 0 0 0 0 0 -0 -0
-0 -0 0 0 -0 -0 -0 -0 -0 -0 -0 0 -0 -0 0 0 0 0 0 0 0 0 0 0 0 0 0 0 0 0 0 0 0 0 0 0 0 -0 0 -0 0 0 0 0 0 0 0 0 0 0 -0 -0 -0 -0
0 0 0 0 0 0 -0 -0 -0 -0 -0 0 -0 0 0 -0 -0 0 0 0 0 0 0 0 0 0 0 0 0 0 0 0 0 0 0 0 0 -0 -0 0 0 0 0 0 0 0 0 0 0 -0 -0 -0 -0 -0
-0 0 0 -0 -0 -0 -0 -0 0 -0 0 -0 -0 -0 0 0 0 0 0 0 0 0 -0 -0 0 0 0 0 0 0 0 0 -0 0 -0 -0 -0 0 0 0 0 0 0 0 0 0 0 0 -0 -0 -0 -0 0 0
0 0 -0 0 -0 -0 -0 -0 0 0 -0 -0 -0 0 0 -0 -0 0 0 0 -0 -0 -0 -0 0 0 0 0 0 0 0 0 -0 0 -0 0 0 0 0 0 0 0 0 0 0 0 0 0 0 -0 -0 0 0 0
-0 -0 -0 -0 -0 -0 -0 -0 0 -0 0 0 0 -0 0 -0 0 0 0 0 -0 -0 -0 -0 0 0 0 0 0 0 -0 -0 0 0 -0 0 0 0 0 0 0 0 0 0 0 -0 -0 -0 -0 0 0 0 0 0
-0 -0 -0 -0 -0 -0 -0 0 -0 0 0 0 0 0 0 0 -0 -0 0 0 -0 -0 -0 -0 0 0 0 -0 -0 0 0 0 0 -0 -0 0 0 0 0 0 -0 -0 -0 -0 -0 -0 -0 -0 0 0 -0 -0 -0 0
-0 -0 -0 -0 -0 -0 -0 -0 -0 0 0 0 0 0 0 -0 0 0 0 0 -0 -0 -0 0 0 0 0 0 0 0 0 0 0 0 0 0 0 0 -0 -0 0 0 0 0 -0 -0 0 0 0 -0 -0 -0 0 0
-0 -0 0 0 0 0 0 -0 0 0 0 0 0 0 0 0 0 -0 -0 -0 0 0 0 0 -0 0 -0 0 0 0 0 -0 0 0 0 0 -0 -0 -0 0 0 0 -0 -0 -0 -0 0 0 0 -0 -0 0 0 0
0 0 0 0 0 0 0 0 0 0 0 0 0 0 -0 -0 0 -0 0 0 0 0 -0 -0 0 0 0 0 0 -0 -0 -0 -0 -0 0 -0 -0 -0 -0 -0 0 0 -0 0 -0 -0 -0 -0 -0 0 -0 0 0 0
0 0 0 0 0 0 0 0 0 0 0 0 0 0 0 0 -0 0 -0 -0 -0 -0 -0 -0 0 0 0 0 -0 -0 0 0 0 0 0 0 -0 -0 0 -0 -0 0 -0 0 0 0 -0 -0 0 0 -0 -0 0 -0
0 0 0 0 0 0 0 0 0 0 0 0 0 0 0 0 0 0 -0 -0 -0 -0 -0 -0 0 0 0 0 -0 0 -0 -0 -0 0 0 0 -0 0 0 -0 -0 -0 -0 0 -0 -0 -0 -0 -0 -0 -0 -0 -0 0
0 0 0 0 0 0 0 0 0 0 0 0 0 0 0 0 0 0 -0 -0 0 -0 -0 0 0 -0 -0 0 -0 -0 -0 0 0 0 0 0 -0 -0 -0 -0 -0 0 -0 -0 -0 0 0 -0 -0 -0 -0 -0 -0 -0
0 0 0 0 0 0 0 0 0 0 0 0 0 0 0 0 0 0 0 -0 -0 -0 0 0 0 -0 0 0 0 0 0 0 -0 -0 0 -0 0 -0 -0 0 -0 0 0 0 -0 0 0 -0 -0 -0 -0 -0 -0 -0
0 0 0 0 0 0 0 0 0 0 0 0 0 0 0 0 -0 0 0 -0 -0 0 -0 -0 0 0 0 0 0 0 0 -0 -0 0 0 0 -0 -0 -0 -0 -0 -0 0 0 -0 -0 -0 0 -0 0 -0 -0 0 0
0 0 0 0 0 0 0 0 0 0 0 0 0 0 -0 -0 -0 0 -0 -0 -0 0 0 0 0 0 0 0 0 0 0 0 0 0 0 0 0 0 0 0 -0 -0 -0 -0 0 0 0 -0 -0 0 0 0 0 0
0 0 0 0 0 0 0 0 0 0 0 0 0 0 0 0 0 -0 -0 0 0 0 0 0 0 0 0 0 0 0 0 0 0 0 0 0 0 0 0 0 0 -0 -0 0 0 0 0 0 0 0 0 0 0 0
0 0 0 0 0 0 0 0 0 0 0 0 0 0 0 0 0 0 0 0 0 0 -0 -0 0 0 0 0 0 0 0 0 0 0 0 0 0 0 0 0 0 0 0 0 0 0 0 -0 -0 0 0 0 0 0
0 0 0 0 0 0 0 0 0 -0 -0 0 -0 0 0 0 0 0 0 0 0 0 0 0 0 0 0 0 0 0 0 0 0 0 0 0 0 0 0 0 0 0 0 0 0 0 0 0 0 -0 -0 0 0 0
0 0 0 0 0 0 -0 0 0 0 0 0 0 -0 0 0 0 0 0 0 0 0 0 0 0 0 0 0 0 -0 0 0 0 0 0 0 0 0 0 0 0 0 0 0 0 0 0 0 0 0 0 0 -0 -0
0 0 -0 -0 -0 0 0 -0 0 0 0 0 0 0 0 0 0 0 0 0 0 0 0 0 0 0 0 0 0 0 -0 0 0 0 0 0 0 0 0 0 0 0 0 0 0 0 0 0 0 0 0 0 0 0
-0 -0 -0 -0 -0 -0 0 0 0 0 0 0 0 0 0 0 0 0 0 0 0 0 0 0 0 0 0 0 0 0 0 -0 0 0 0 0 0 0 0 0 0 0 0 0 0 0 0 0 0 0 0 0 0 0
0 0 0 0 0 0 0 0 0 0 0 0 0 0 0 0 0 0 0 0 0 0 0 0 0 0 0 0 0 0 0 0 0 0 0 0 0 0 0 0 0 0 0 0 0 0 0 0 0 0 0 0 0 0
0 0 0 0 0 0 0 0 0 0 0 0 0 0 0 0 0 0 0 0 0 0 0 0 0 0 0 0 0 0 0 0 0 0 0 0 0 0 0 0 0 0 0 0 0 0 0 0 0 0 0 0 0 0
0 0 0 0 0 0 0 0 0 0 0 0 0 0 0 0 0 0 0 0 0 0 0 0 0 0 0 0 0 0 0 0 0 0 0 0 0 0 0 0 0 0 0 0 0 0 0 0 0 0 0 0 0 0
0 0 0 0 0 0 0 0 0 0 0 0 0 0 0 0 0 0 0 0 0 0 0 0 0 0 0 0 0 0 0 0 0 -0 -0 0 0 0 0 0 0 0 0 0 0 0 0 0 0 0 0 0 0 0
Wind_Speed_500mb
41 41 43 43 42 39 36 36 33 29 27 23 18 14 18 17 13 13 17 13 11 6 25 24 14 12 9 8 4 9 10 4 2 1 3 4 4 6 7 7 8 10 11 7 6 8 15 12 16 5 9 18 20 19
43 40 44 44 42 38 36 31 30 26 22 18 15 12 13 12 13 13 12 14 13 13 15 19 26 19 18 9 9 8 7 14 7 3 5 4 6 7 9 5 8 4 9 3 12 9 8 23 18 17 18 12 23 30
41 38 39 42 38 36 35 29 27 21 18 14 10 7 6 6 9 9 12 14 12 14 36 34 35 15 9 36 33 11 7 5 3 6 5 5 8 5 4 6 9 8 9 2 2 10 6 14 17 20 24 19 25 31
45 39 38 40 36 36 31 27 25 20 18 13 11 10 7 8 8 11 14 15 12 3 6 15 18 23 20 19 32 36 23 12 4 5 7 3 3 9 5 10 13 14 15 11 12 8 8 10 14 13 18 19 29 30
46 39 32 40 38 34 27 23 21 20 16 13 12 11 7 7 10 14 17 22 22 12 6 17 37 20 16 31 32 30 29 21 9 6 3 5 8 8 9 12 18 22 6 1 5 25 22 20 17 18 24 31 29 29
42 34 31 34 35 32 27 19 20 18 14 12 12 9 9 9 11 11 8 10 23 27 3 6 14 13 25 36 35 31 25 18 9 10 5 8 11 3 7 7 14 10 5 15 12 16 13 16 23 30 27 31 29 25
41 30 29 28 29 29 20 15 16 12 8 5 6 11 13 15 12 9 7 11 6 35 4 7 9 11 27 39 26 27 23 10 9 9 8 8 11 11 5 12 20 44 41 30 3 6 8 19 28 36 35 20 28 31
43 34 27 26 29 24 19 12 7 5 6 11 15 18 15 14 21 22 25 19 5 12 9 4 8 5 29 19 13 14 11 12 10 9 6 9 10 13 10 22 34 33 5 7 4 11 20 24 25 25 32 38 36 38
43 35 25 21 21 17 17 10 8 11 13 15 19 15 14 5 9 8 10 6 22 10 6 8 5 2 6 6 11 8 9 3 8 5 7 8 5 12 14 27 9 9 4 2 12 18 22 23 32 37 38 34 37 34
39 32 22 18 17 16 13 16 13 16 18 20 13 3 2 3 6 8 12 12 11 9 12 7 14 3 9 23 7 10 7 4 5 10 9 7 7 36 36 23 6 7 3 5 17 20 20 27 32 34 30 32 32 34
30 27 23 19 15 16 15 16 15 17 17 4 4 3 13 22 13 7 4 5 7 6 12 14 23 8 1 1 5 9 5 4 5 5 5 6 6 3 11 12 12 3 5 9 14 14 22 26 31 28 30 35 30 38
25 23 20 17 13 12 14 15 10 10 5 3 5 7 18 6 3 3 5 6 8 7 19 10 10 12 5 4 6 6 2 4 9 16 5 5 3 19 23 11 3 5 7 10 20 23 24 26 31 30 34 29 35 47
23 22 18 13 13 15 15 10 6 6 16 4 2 4 6 6 5 8 10 7 6 12 15 17 6 6 6 5 4 3 5 9 12 7 6 3 13 20 9 3 4 16 18 23 25 23 26 26 29 31 29 34 48 47
23 20 20 13 12 12 10 9 9 4 5 3 3 5 7 8 10 9 4 5 4 18 30 28 9 5 4 3 4 4 7 5 5 6 3 0 19 11 5 23 27 26 25 26 25 26 27 30 31 34 33 41 45 39
23 24 19 17 10 8 10 10 10 5 3 4 5 7 13 23 19 4 19 24 28 32 23 17 9 4 2 4 6 7 7 7 3 4 4 21 13 16 29 29 26 24 23 25 28 27 30 32 34 31 32 45 32 41
23 21 13 9 15 9 7 13 10 8 4 5 8 9 20 16 18 12 20 31 24 22 17 11 5 5 6 6 8 8 6 3 3 3 24 15 36 28 30 22 22 23 23 27 30 32 36 35 37 34 33 56 37 40
17 18 16 9 16 14 16 14 14 7 6 7 10 21 35 33 11 9 12 14 14 14 3 3 6 8 4 5 5 3 4 6 13 30 23 24 26 28 23 21 23 23 25 27 33 32 31 43 35 52 38 50 50 43
25 17 14 10 24 23 26 16 6 6 9 14 13 17 20 14 0 17 25 18 9 6 7 4 4 5 5 3 4 2 20 19 34 31 27 26 26 24 22 24 20 24 26 28 29 39 35 37 43 50 47 39 64 46
23 18 15 20 34 20 13 9 7 6 15 20 21 26 22 14 4 7 24 15 9 8 5 3 4 5 3 6 7 17 27 33 34 34 32 27 24 21 22 20 14 30 29 30 32 33 42 40 37 45 58 44 57 66
22 21 19 31 37 9 8 6 8 8 10 9 19 23 13 4 3 10 22 15 11 7 3 3 5 8 10 20 10 23 19 41 39 37 35 25 19 14 18 14 17 29 35 40 34 34 34 44 42 36 52 66 48 61
21 21 31 37 28 9 4 6 9 11 12 10 12 7 3 3 5 7 9 15 9 6 4 12 16 5 17 25 6 11 27 38 40 35 35 32 22 27 25 14 34 33 30 29 33 39 40 39 41 36 42 53 62 48
25 29 25 14 6 6 7 12 9 11 7 10 12 5 1 2 5 11 11 13 6 10 11 12 13 3 7 6 15 24 29 32 33 35 32 28 24 19 21 34 32 33 30 28 28 31 33 37 36 38 40 38 46 59
28 15 9 6 5 7 9 8 6 4 4 7 6 6 7 8 9 16 6 10 3 13 8 8 3 5 9 5 16 24 24 27 33 27 28 32 25 24 26 26 28 30 29 26 25 32 32 27 36 34 37 34 38 41
15 9 7 9 13 6 6 5 6 6 6 5 5 6 3 5 14 5 2 8 19 21 11 6 2 11 8 10 13 18 18 28 28 26 24 27 24 24 34 37 34 30 27 26 26 26 27 33 32 34 30 41 41 42
3 4 5 5 4 5 5 4 5 6 7 12 6 7 5 8 4 2 5 8 25 26 20 8 5 4 15 14 12 21 18 24 25 25 24 27 22 19 23 24 20 22 20 20 22 24 25 25 30 36 34 27 39 45
1 6 6 6 7 7 7 5 10 11 10 4 7 4 7 3 3 5 5 17 14 22 22 22 22 14 11 17 15 20 21 27 34 31 18 19 25 30 29 23 21 24 20 18 18 20 21 21 21 25 29 31 28 33
4 6 7 9 7 8 7 9 7 4 4 7 6 7 4 4 6 4 11 16 22 19 15 20 11 10 5 13 20 26 21 28 29 26 22 24 24 30 29 34 32 22 20 21 18 16 17 17 19 20 21 25 27 26
8 3 5 9 3 2 3 6 1 5 5 8 6 9 5 9 5 13 11 22 24 17 2 8 5 13 12 26 11 29 35 40 36 27 23 20 20 22 30 33 27 17 18 21 22 18 15 16 18 18 18 18 20 23
7 6 6 6 4 6 4 7 6 7 10 11 4 5 7 7 14 18 22 20 19 8 7 18 21 20 13 9 25 28 36 36 36 23 16 13 10 17 22 20 12 6 13 17 8 14 13 13 19 22 18 18 13 11
2 3 3 2 6 7 7 7 8 8 11 11 12 14 14 14 20 21 14 17 21 5 11 14 11 4 7 19 32 29 26 22 22 26 27 27 22 22 21 15 15 18 20 20 19 23 24 23 19 10 8 13 14 7
3 4 4 6 5 4 10 15 17 15 14 20 19 20 13 11 7 29 31 20 21 24 27 32 25 18 19 20 19 19 15 16 18 19 31 37 36 29 27 24 23 22 21 22 18 16 17 17 9 7 4 10 11 3
7 2 4 4 6 11 7 6 7 6 5 6 6 7 11 8 8 23 38 28 17 24 32 30 34 36 17 14 15 20 24 22 32 41 40 41 34 31 29 24 20 20 20 18 18 16 16 12 3 2 1 2 2 5
6 8 13 9 6 7 6 3 5 8 7 6 6 9 12 8 7 19 21 27 25 13 14 22 24 33 30 27 25 28 34 38 38 39 38 35 37 36 32 28 25 22 21 19 19 20 20 18 14 8 4 7 7 8
Wind_Direction_500mb
321 321 321 322 319 319 316 313 315 312 313 309 305 280 275 283 273 266 255 253 249 264 278 301 315 327 344 49 57 358 333 223 280 247 256 283 303 294 322 130 188 176 170 189 190 233 256 30 2 354 276 326 342 344
320 320 324 325 319 319 318 314 314 312 313 312 303 296 290 262 260 261 275 257 266 257 257 276 274 265 243 246 238 213 315 337 352 3 352 317 292 325 328 287 343 294 193 210 186 222 302 315 235 26 28 10 357 346
324 324 327 328 323 321 320 314 314 311 309 307 304 291 293 286 272 257 253 280 283 296 288 274 270 274 282 239 218 210 209 263 323 28 357 255 263 328 287 274 313 318 78 184 346 267 335 10 70 19 354 335 333 327
318 316 319 320 322 326 325 317 314 299 302 297 294 292 270 277 252 254 254 265 255 257 278 286 289 276 255 206 191 215 224 209 220 357 55 342 274 282 285 286 297 263 293 234 251 274 310 46 342 332 325 321 318 314
323 325 323 323 326 323 323 324 318 307 292 287 287 296 289 284 262 282 270 263 244 222 311 296 296 284 203 193 205 204 221 226 191 128 154 228 268 288 292 271 264 250 268 47 275 321 286 289 348 344 329 315 308 311
322 325 321 325 327 326 319 311 310 297 283 281 289 279 268 287 285 304 301 275 229 225 260 308 299 261 210 198 204 201 207 202 159 146 192 232 244 261 262 268 269 151 236 253 206 268 290 328 318 318 309 309 305 315
324 322 317 321 331 331 317 309 323 307 290 292 305 289 273 273 263 242 294 9 203 207 125 284 271 312 202 170 161 176 188 182 166 183 221 246 254 214 254 251 272 296 301 300 100 352 323 316 306 317 313 345 343 343
326 321 308 318 332 328 317 312 315 313 311 307 302 302 282 263 274 274 254 263 263 149 180 269 268 278 152 151 137 165 155 182 202 200 217 231 251 188 250 249 265 274 297 56 20 325 313 316 328 345 354 351 351 351
323 317 310 305 321 337 320 312 279 297 302 310 317 308 284 259 211 225 254 242 191 189 212 225 263 191 172 102 116 117 168 177 204 221 225 237 218 226 232 252 333 51 105 353 326 333 353 359 351 352 349 352 355 347
321 319 314 305 299 305 328 318 291 294 301 294 301 296 350 214 196 144 142 171 203 219 220 244 295 280 157 180 128 122 154 217 229 215 212 222 253 250 256 245 141 122 80 329 339 336 11 359 347 344 2 7 1 339
320 323 324 313 298 315 309 306 302 298 311 292 201 234 164 152 157 171 140 194 183 233 214 231 226 255 84 343 110 183 169 191 262 170 239 214 244 40 59 169 140 119 321 328 323 32 14 358 346 9 18 9 353 349
325 321 320 313 300 304 326 292 299 330 285 255 258 150 174 201 215 227 194 197 206 244 181 208 160 149 98 54 111 162 219 175 247 150 243 254 132 115 90 75 26 272 314 36 37 24 10 8 11 20 19 15 2 354
319 313 309 294 299 276 299 285 285 288 329 278 186 150 177 172 223 231 197 198 213 208 168 136 93 89 88 89 92 128 225 234 147 199 227 129 130 91 126 230 4 82 54 42 33 27 17 15 21 23 25 8 354 359
301 304 309 296 280 271 275 288 247 222 222 285 193 219 228 185 235 215 144 305 133 119 111 107 86 71 106 167 121 229 240 256 238 227 102 120 112 128 105 67 76 62 52 44 42 32 28 39 40 27 14 5 3 8
293 311 299 281 259 255 266 244 212 228 228 265 253 251 224 245 277 251 202 123 110 126 121 104 96 122 143 223 209 238 234 235 292 91 131 139 145 99 90 73 64 59 55 50 44 41 46 40 36 34 15 14 19 12
298 295 315 310 222 221 218 148 168 193 254 252 243 271 273 300 7 48 127 113 131 137 127 130 134 186 203 226 216 226 271 20 123 106 127 136 109 91 85 82 73 70 67 70 56 56 46 48 38 35 18 24 32 10
272 273 304 280 212 192 194 191 189 210 253 252 250 255 261 273 291 241 150 141 159 136 126 124 190 221 209 229 206 175 203 132 202 130 129 112 104 102 99 91 88 84 74 76 60 63 50 47 42 41 32 21 34 28
250 262 277 238 190 181 182 198 204 230 250 252 258 285 334 320 300 122 131 149 142 148 153 206 283 264 243 293 298 153 119 148 124 128 121 115 110 110 104 100 83 101 84 79 65 56 57 43 47 38 42 21 29 38
255 237 209 201 183 176 176 198 211 256 249 266 266 279 283 302 29 117 145 153 144 143 152 271 255 246 304 65 318 154 154 144 136 127 117 119 115 120 117 119 105 97 97 85 73 62 53 52 47 38 35 43 33 35
244 191 189 187 190 158 165 198 209 247 270 267 282 256 275 331 296 160 147 154 143 120 177 219 252 38 291 251 227 187 146 146 141 131 125 125 133 129 151 131 154 106 83 64 72 76 62 51 50 37 35 40 43 34
132 149 160 174 191 193 201 219 231 246 293 284 303 328 280 201 192 172 154 184 193 220 231 247 260 274 288 335 68 193 163 160 158 149 142 143 134 132 142 119 111 116 94 82 69 63 61 64 51 47 38 40 39 51
144 159 157 139 129 199 253 226 245 299 265 277 288 240 268 233 224 203 191 197 242 235 227 274 305 224 260 325 352 125 106 109 134 145 140 138 152 155 141 125 116 96 92 77 79 76 66 67 54 54 54 38 31 37
152 151 124 153 165 212 270 221 246 249 267 282 221 220 199 208 211 162 204 207 258 358 302 276 261 191 199 348 117 120 118 126 123 123 124 125 117 111 123 124 119 115 106 97 74 68 68 82 72 54 48 60 57 36
144 162 189 203 200 231 222 235 210 244 269 257 247 251 177 115 149 204 254 67 9 353 32 20 227 173 221 149 139 131 131 130 125 114 115 122 129 108 112 106 109 108 106 105 94 77 61 54 68 71 51 45 55 63
197 233 195 279 230 227 221 221 229 228 249 203 251 276 150 147 175 213 67 28 20 23 39 26 36 199 176 173 152 129 125 141 138 131 137 140 135 123 113 109 118 125 122 112 101 96 85 72 60 61 62 51 43 49
272 227 177 237 200 231 216 224 207 225 265 233 242 220 114 100 102 63 44 350 356 1 10 18 23 39 170 157 147 146 135 158 141 126 124 141 157 151 144 137 117 93 105 109 107 100 93 83 76 73 69 64 51 42
247 255 247 247 266 306 306 348 303 255 288 342 15 340 184 131 69 49 356 355 344 328 334 4 11 42 155 207 161 157 140 147 138 125 139 135 154 158 164 153 140 131 131 118 107 109 112 108 92 79 78 75 65 61
256 289 284 317 321 304 237 275 228 34 41 352 14 27 46 22 56 347 326 320 320 315 347 10 302 203 122 147 138 151 156 150 144 139 130 125 114 121 150 155 159 153 160 140 127 120 110 112 106 99 87 82 91 80
241 246 289 308 258 229 59 29 46 52 3 347 35 51 74 66 8 351 340 337 341 327 287 29 104 145 173 140 155 180 165 169 168 151 136 116 105 111 143 156 170 184 179 174 154 152 138 125 112 97 94 89 76 99
215 235 157 251 33 31 29 48 94 75 64 68 111 103 91 80 35 14 16 24 24 7 36 74 35 129 175 138 150 146 151 159 170 167 162 153 138 125 118 110 87 83 86 86 92 110 98 101 98 119 148 132 85 33
200 256 234 102 89 76 94 95 92 89 80 67 97 108 125 139 48 11 27 35 43 83 102 84 85 114 141 151 166 162 162 177 191 195 174 160 155 148 149 152 150 146 139 130 110 111 134 143 162 181 153 126 150 171
182 210 73 107 120 146 152 154 159 103 99 87 68 108 150 103 63 9 12 19 37 60 68 81 81 57 78 144 170 172 150 142 140 148 168 163 158 152 141 139 137 134 134 133 143 136 133 120 110 293 357 55 330 327
189 145 118 125 126 171 173 200 148 109 95 94 68 60 54 64 81 17 358 13 19 34 67 70 91 101 98 103 123 149 152 143 149 159 160 156 155 158 157 145 135 135 134 135 147 159 162 172 185 211 306 358 0 352
Wind_Speed_850mb
41 41 43 43 42 39 36 36 33 29 27 23 18 14 18 17 13 13 17 13 11 6 25 24 14 12 9 8 4 9 10 4 2 1 3 4 4 6 7 7 8 10 11 7 6 8 15 12 16 5 9 18 20 19
43 40 44 44 42 38 36 31 30 26 22 18 15 12 13 12 13 13 12 14 13 13 15 19 26 19 18 9 9 8 7 14 7 3 5 4 6 7 9 5 8 4 9 3 12 9 8 23 18 17 18 12 23 30
41 38 39 42 38 36 35 29 27 21 18 14 10 7 6 6 9 9 12 14 12 14 36 34 35 15 9 36 33 11 7 5 3 6 5 5 8 5 4 6 9 8 9 2 2 10 6 14 17 20 24 19 25 31
45 39 38 40 36 36 31 27 25 20 18 13 11 10 7 8 8 11 14 15 12 3 6 15 18 23 20 19 32 36 23 12 4 5 7 3 3 9 5 10 13 14 15 11 12 8 8 10 14 13 18 19 29 30
46 39 32 40 38 34 27 23 21 20 16 13 12 11 7 7 10 14 17 22 22 12 6 17 37 20 16 31 32 30 29 21 9 6 3 5 8 8 9 12 18 22 6 1 5 25 22 20 17 18 24 31 29 29
42 34 31 34 35 32 27 19 20 18 14 12 12 9 9 9 11 11 8 10 23 27 3 6 14 13 25 36 35 31 25 18 9 10 5 8 11 3 7 7 14 10 5 15 12 16 13 16 23 30 27 31 29 25
41 30 29 28 29 29 20 15 16 12 8 5 6 11 13 15 12 9 7 11 6 35 4 7 9 11 27 39 26 27 23 10 9 9 8 8 11 11 5 12 20 44 41 30 3 6 8 19 28 36 35 20 28 31
43 34 27 26 29 24 19 12 7 5 6 11 15 18 15 14 21 22 25 19 5 12 9 4 8 5 29 19 13 14 11 12 10 9 6 9 10 13 10 22 34 33 5 7 4 11 20 24 25 25 32 38 36 38
43 35 25 21 21 17 17 10 8 11 13 15 19 15 14 5 9 8 10 6 22 10 6 8 5 2 6 6 11 8 9 3 8 5 7 8 5 12 14 27 9 9 4 2 12 18 22 23 32 37 38 34 37 34
39 32 22 18 17 16 13 16 13 16 18 20 13 3 2 3 6 8 12 12 11 9 12 7 14 3 9 23 7 10 7 4 5 10 9 7 7 36 36 23 6 7 3 5 17 20 20 27 32 34 30 32 32 34
30 27 23 19 15 16 15 16 15 17 17 4 4 3 13 22 13 7 4 5 7 6 12 14 23 8 1 1 5 9 5 4 5 5 5 6 6 3 11 12 12 3 5 9 14 14 22 26 31 28 30 35 30 38
25 23 20 17 13 12 14 15 10 10 5 3 5 7 18 6 3 3 5 6 8 7 19 10 10 12 5 4 6 6 2 4 9 16 5 5 3 19 23 11 3 5 7 10 20 23 24 26 31 30 34 29 35 47
23 22 18 13 13 15 15 10 6 6 16 4 2 4 6 6 5 8 10 7 6 12 15 17 6 6 6 5 4 3 5 9 12 7 6 3 13 20 9 3 4 16 18 23 25 23 26 26 29 31 29 34 48 47
23 20 20 13 12 12 10 9 9 4 5 3 3 5 7 8 10 9 4 5 4 18 30 28 9 5 4 3 4 4 7 5 5 6 3 0 19 11 5 23 27 26 25 26 25 26 27 30 31 34 33 41 45 39
23 24 19 17 10 8 10 10 10 5 3 4 5 7 13 23 19 4 19 24 28 32 23 17 9 4 2 4 6 7 7 7 3 4 4 21 13 16 29 29 26 24 23 25 28 27 30 32 34 31 32 45 32 41
23 21 13 9 15 9 7 13 10 8 4 5 8 9 20 16 18 12 20 31 24 22 17 11 5 5 6 6 8 8 6 3 3 3 24 15 36 28 30 22 22 23 23 27 30 32 36 35 37 34 33 56 37 40
17 18 16 9 16 14 16 14 14 7 6 7 10 21 35 33 11 9 12 14 14 14 3 3 6 8 4 5 5 3 4 6 13 30 23 24 26 28 23 21 23 23 25 27 33 32 31 43 35 52 38 50 50 43
25 17 14 10 24 23 26 16 6 6 9 14 13 17 20 14 0 17 25 18 9 6 7 4 4 5 5 3 4 2 20 19 34 31 27 26 26 24 22 24 20 24 26 28 29 39 35 37 43 50 47 39 64 46
23 18 15 20 34 20 13 9 7 6 15 20 21 26 22 14 4 7 24 15 9 8 5 3 4 5 3 6 7 17 27 33 34 34 32 27 24 21 22 20 14 30 29 30 32 33 42 40 37 45 58 44 57 66
22 21 19 31 37 9 8 6 8 8 10 9 19 23 13 4 3 10 22 15 11 7 3 3 5 8 10 20 10 23 19 41 39 37 35 25 19 14 18 14 17 29 35 40 34 34 34 44 42 36 52 66 48 61
21 21 31 37 28 9 4 6 9 11 12 10 12 7 3 3 5 7 9 15 9 6 4 12 16 5 17 25 6 11 27 38 40 35 35 32 22 27 25 14 34 33 30 29 33 39 40 39 41 36 42 53 62 48
25 29 25 14 6 6 7 12 9 11 7 10 12 5 1 2 5 11 11 13 6 10 11 12 13 3 7 6 15 24 29 32 33 35 32 28 24 19 21 34 32 33 30 28 28 31 33 37 36 38 40 38 46 59
28 15 9 6 5 7 9 8 6 4 4 7 6 6 7 8 9 16 6 10 3 13 8 8 3 5 9 5 16 24 24 27 33 27 28 32 25 24 26 26 28 30 29 26 25 32 32 27 36 34 37 34 38 41
15 9 7 9 13 6 6 5 6 6 6 5 5 6 3 5 14 5 2 8 19 21 11 6 2 11 8 10 13 18 18 28 28 26 24 27 24 24 34 37 34 30 27 26 26 26 27 33 32 34 30 41 41 42
3 4 5 5 4 5 5 4 5 6 7 12 6 7 5 8 4 2 5 8 25 26 20 8 5 4 15 14 12 21 18 24 25 25 24 27 22 19 23 24 20 22 20 20 22 24 25 25 30 36 34 27 39 45
1 6 6 6 7 7 7 5 10 11 10 4 7 4 7 3 3 5 5 17 14 22 22 22 22 14 11 17 15 20 21 27 34 31 18 19 25 30 29 23 21 24 20 18 18 20 21 21 21 25 29 31 28 33
4 6 7 9 7 8 7 9 7 4 4 7 6 7 4 4 6 4 11 16 22 19 15 20 11 10 5 13 20 26 21 28 29 26 22 24 24 30 29 34 32 22 20 21 18 16 17 17 19 20 21 25 27 26
8 3 5 9 3 2 3 6 1 5 5 8 6 9 5 9 5 13 11 22 24 17 2 8 5 13 12 26 11 29 35 40 36 27 23 20 20 22 30 33 27 17 18 21 22 18 15 16 18 18 18 18 20 23
7 6 6 6 4 6 4 7 6 7 10 11 4 5 7 7 14 18 22 20 19 8 7 18 21 20 13 9 25 28 36 36 36 23 16 13 10 17 22 20 12 6 13 17 8 14 13 13 19 22 18 18 13 11
2 3 3 2 6 7 7 7 8 8 11 11 12 14 14 14 20 21 14 17 21 5 11 14 11 4 7 19 32 29 26 22 22 26 27 27 22 22 21 15 15 18 20 20 19 23 24 23 19 10 8 13 14 7
3 4 4 6 5 4 10 15 17 15 14 20 19 20 13 11 7 29 31 20 21 24 27 32 25 18 19 20 19 19 15 16 18 19 31 37 36 29 27 24 23 22 21 22 18 16 17 17 9 7 4 10 11 3
7 2 4 4 6 11 7 6 7 6 5 6 6 7 11 8 8 23 38 28 17 24 32 30 34 36 17 14 15 20 24 22 32 41 40 41 34 31 29 24 20 20 20 18 18 16 16 12 3 2 1 2 2 5
6 8 13 9 6 7 6 3 5 8 7 6 6 9 12 8 7 19 21 27 25 13 14 22 24 33 30 27 25 28 34 38 38 39 38 35 37 36 32 28 25 22 21 19 19 20 20 18 14 8 4 7 7 8
Wind_Direction_850mb
321 321 321 322 319 319 316 313 315 312 313 309 305 280 275 283 273 266 255 253 249 264 278 301 315 327 344 49 57 358 333 223 280 247 256 283 303 294 322 130 188 176 170 189 190 233 256 30 2 354 276 326 342 344
320 320 324 325 319 319 318 314 314 312 313 312 303 296 290 262 260 261 275 257 266 257 257 276 274 265 243 246 238 213 315 337 352 3 352 317 292 325 328 287 343 294 193 210 186 222 302 315 235 26 28 10 357 346
324 324 327 328 323 321 320 314 314 311 309 307 304 291 293 286 272 257 253 280 283 296 288 274 270 274 282 239 218 210 209 263 323 28 357 255 263 328 287 274 313 318 78 184 346 267 335 10 70 19 354 335 333 327
318 316 319 320 322 326 325 317 314 299 302 297 294 292 270 277 252 254 254 265 255 257 278 286 289 276 255 206 191 215 224 209 220 357 55 342 274 282 285 286 297 263 293 234 251 274 310 46 342 332 325 321 318 314
323 325 323 323 326 323 323 324 318 307 292 287 287 296 289 284 262 282 270 263 244 222 311 296 296 284 203 193 205 204 221 226 191 128 154 228 268 288 292 271 264 250 268 47 275 321 286 289 348 344 329 315 308 311
322 325 321 325 327 326 319 311 310 297 283 281 289 279 268 287 285 304 301 275 229 225 260 308 299 261 210 198 204 201 207 202 159 146 192 232 244 261 262 268 269 151 236 253 206 268 290 328 318 318 309 309 305 315
324 322 317 321 331 331 317 309 323 307 290 292 305 289 273 273 263 242 294 9 203 207 125 284 271 312 202 170 161 176 188 182 166 183 221 246 254 214 254 251 272 296 301 300 100 352 323 316 306 317 313 345 343 343
326 321 308 318 332 328 317 312 315 313 311 307 302 302 282 263 274 274 254 263 263 149 180 269 268 278 152 151 137 165 155 182 202 200 217 231 251 188 250 249 265 274 297 56 20 325 313 316 328 345 354 351 351 351
323 317 310 305 321 337 320 312 279 297 302 310 317 308 284 259 211 225 254 242 191 189 212 225 263 191 172 102 116 117 168 177 204 221 225 237 218 226 232 252 333 51 105 353 326 333 353 359 351 352 349 352 355 347
321 319 314 305 299 305 328 318 291 294 301 294 301 296 350 214 196 144 142 171 203 219 220 244 295 280 157 180 128 122 154 217 229 215 212 222 253 250 256 245 141 122 80 329 339 336 11 359 347 344 2 7 1 339
320 323 324 313 298 315 309 306 302 298 311 292 201 234 164 152 157 171 140 194 183 233 214 231 226 255 84 343 110 183 169 191 262 170 239 214 244 40 59 169 140 119 321 328 323 32 14 358 346 9 18 9 353 349
325 321 320 313 300 304 326 292 299 330 285 255 258 150 174 201 215 227 194 197 206 244 181 208 160 149 98 54 111 162 219 175 247 150 243 254 132 115 90 75 26 272 314 36 37 24 10 8 11 20 19 15 2 354
319 313 309 294 299 276 299 285 285 288 329 278 186 150 177 172 223 231 197 198 213 208 168 136 93 89 88 89 92 128 225 234 147 199 227 129 130 91 126 230 4 82 54 42 33 27 17 15 21 23 25 8 354 359
301 304 309 296 280 271 275 288 247 222 222 285 193 219 228 185 235 215 144 305 133 119 111 107 86 71 106 167 121 229 240 256 238 227 102 120 112 128 105 67 76 62 52 44 42 32 28 39 40 27 14 5 3 8
293 311 299 281 259 255 266 244 212 228 228 265 253 251 224 245 277 251 202 123 110 126 121 104 96 122 143 223 209 238 234 235 292 91 131 139 145 99 90 73 64 59 55 50 44 41 46 40 36 34 15 14 19 12
298 295 315 310 222 221 218 148 168 193 254 252 243 271 273 300 7 48 127 113 131 137 127 130 134 186 203 226 216 226 271 20 123 106 127 136 109 91 85 82 73 70 67 70 56 56 46 48 38 35 18 24 32 10
272 273 304 280 212 192 194 191 189 210 253 252 250 255 261 273 291 241 150 141 159 136 126 124 190 221 209 229 206 175 203 132 202 130 129 112 104 102 99 91 88 84 74 76 60 63 50 47 42 41 32 21 34 28
250 262 277 238 190 181 182 198 204 230 250 252 258 285 334 320 300 122 131 149 142 148 153 206 283 264 243 293 298 153 119 148 124 128 121 115 110 110 104 100 83 101 84 79 65 56 57 43 47 38 42 21 29 38
255 237 209 201 183 176 176 198 211 256 249 266 266 279 283 302 29 117 145 153 144 143 152 271 255 246 304 65 318 154 154 144 136 127 117 119 115 120 117 119 105 97 97 85 73 62 53 52 47 38 35 43 33 35
244 191 189 187 190 158 165 198 209 247 270 267 282 256 275 331 296 160 147 154 143 120 177 219 252 38 291 251 227 187 146 146 141 131 125 125 133 129 151 131 154 106 83 64 72 76 62 51 50 37 35 40 43 34
132 149 160 174 191 193 201 219 231 246 293 284 303 328 280 201 192 172 154 184 193 220 231 247 260 274 288 335 68 193 163 160 158 149 142 143 134 132 142 119 111 116 94 82 69 63 61 64 51 47 38 40 39 51
144 159 157 139 129 199 253 226 245 299 265 277 288 240 268 233 224 203 191 197 242 235 227 274 305 224 260 325 352 125 106 109 134 145 140 138 152 155 141 125 116 96 92 77 79 76 66 67 54 54 54 38 31 37
152 151 124 153 165 212 270 221 246 249 267 282 221 220 199 208 211 162 204 207 258 358 302 276 261 191 199 348 117 120 118 126 123 123 124 125 117 111 123 124 119 115 106 97 74 68 68 82 72 54 48 60 57 36
144 162 189 203 200 231 222 235 210 244 269 257 247 251 177 115 149 204 254 67 9 353 32 20 227 173 221 149 139 131 131 130 125 114 115 122 129 108 112 106 109 108 106 105 94 77 61 54 68 71 51 45 55 63
197 233 195 279 230 227 221 221 229 228 249 203 251 276 150 147 175 213 67 28 20 23 39 26 36 199 176 173 152 129 125 141 138 131 137 140 135 123 113 109 118 125 122 112 101 96 85 72 60 61 62 51 43 49
272 227 177 237 200 231 216 224 207 225 265 233 242 220 114 100 102 63 44 350 356 1 10 18 23 39 170 157 147 146 135 158 141 126 124 141 157 151 144 137 117 93 105 109 107 100 93 83 76 73 69 64 51 42
247 255 247 247 266 306 306 348 303 255 288 342 15 340 184 131 69 49 356 355 344 328 334 4 11 42 155 207 161 157 140 147 138 125 139 135 154 158 164 153 140 131 131 118 107 109 112 108 92 79 78 75 65 61
256 289 284 317 321 304 237 275 228 34 41 352 14 27 46 22 56 347 326 320 320 315 347 10 302 203 122 147 138 151 156 150 144 139 130 125 114 121 150 155 159 153 160 140 127 120 110 112 106 99 87 82 91 80
241 246 289 308 258 229 59 29 46 52 3 347 35 51 74 66 8 351 340 337 341 327 287 29 104 145 173 140 155 180 165 169 168 151 136 116 105 111 143 156 170 184 179 174 154 152 138 125 112 97 94 89 76 99
215 235 157 251 33 31 29 48 94 75 64 68 111 103 91 80 35 14 16 24 24 7 36 74 35 129 175 138 150 146 151 159 170 167 162 153 138 125 118 110 87 83 86 86 92 110 98 101 98 119 148 132 85 33
200 256 234 102 89 76 94 95 92 89 80 67 97 108 125 139 48 11 27 35 43 83 102 84 85 114 141 151 166 162 162 177 191 195 174 160 155 148 149 152 150 146 139 130 110 111 134 143 162 181 153 126 150 171
182 210 73 107 120 146 152 154 159 103 99 87 68 108 150 103 63 9 12 19 37 60 68 81 81 57 78 144 170 172 150 142 140 148 168 163 158 152 141 139 137 134 134 133 143 136 133 120 110 293 357 55 330 327
189 145 118 125 126 171 173 200 148 109 95 94 68 60 54 64 81 17 358 13 19 34 67 70 91 101 98 103 123 149 152 143 149 159 160 156 155 158 157 145 135 135 134 135 147 159 162 172 185 211 306 358 0 352